Regional Weather Roundup
Issued by NWS Kansas City/Pleasant Hill, MO

Home | Current Version | Previous Version | Graphics & Text | Print | Product List | Glossary Off
Versions: 1 2 3 4 5 6 7 8 9 10 11 12 13 14 15 16 17 18 19 20 21 22 23 24 25 26 27 28 29 30 31 32 33 34 35 36 37 38 39 40 41 42 43 44 45 46 47 48 49 50

000
ASUS43 KEAX 212011
RWREAX

WEATHER ROUNDUP FOR EASTERN KANSAS AND NORTHWEST MISSOURI
NATIONAL WEATHER SERVICE KANSAS CITY/PLEASANT HILL MO
300 PM CDT THU AUG 21 2014

KSZ040-057-103>105-MOZ028-029-037-043-212100-
...KANSAS CITY METROPOLITAN AREA...

CITY           SKY/WX    TMP DP  RH WIND       PRES   REMARKS
K.C. INTL      PTSUNNY   93  75  55 S12       29.89F HX 104
K.C. DOWNTOWN  MOSUNNY   95  71  45 SW15      29.87F HX 102
LEES SUMMIT    MOSUNNY   93  72  50 S16G24    29.90F HX 101
OLATHE - IXD   SUNNY     96  70  42 S17       29.90F HX 102
OLATHE - OJC   MOSUNNY   93  72  50 SW13      29.89F HX 101
LAWRENCE       SUNNY     97  70  41 S15G25    29.86F HX 103

$$

MOZ001>008-011>017-020>025-030>033-038>040-044>046-053-054-212100-
...NORTHERN AND CENTRAL MISSOURI...

CITY           SKY/WX    TMP DP  RH WIND       PRES   REMARKS
ST. JOSEPH     PTSUNNY   92  76  59 S17       29.84F HX 104
MOSBY          CLOUDY    90  72  55 S9        29.88F HX  96
WHITEMAN AFB   MOSUNNY   92  69  46 SW15      29.91F HX  96
CLINTON        MOSUNNY   93  72  49 S13       29.92F HX 100
SEDALIA        MOSUNNY   94  73  50 SW14      29.94F HX 103
WARSAW         NOT AVBL
MARSHALL       PTSUNNY   91  77  62 S8G18     29.91F HX 105
CHILLICOTHE      N/A     90  77  65 S12G17    29.90S HX 103
MOBERLY        MOSUNNY   90  72  55 SW9       29.94F HX  96
KIRKSVILLE     MOSUNNY   91  75  59 VRB7      29.93F HX 101

$$

MOZ041-047>049-056>058-063>065-088>090-097-212100-
...EASTERN AND SOUTHERN MISSOURI...

CITY           SKY/WX    TMP DP  RH WIND       PRES   REMARKS
ST. LOUIS INTL PTSUNNY   95  74  50 S12       29.96  HX 105
SPIRIT OF STL  MOSUNNY   93  74  53 SW13      29.94F HX 103
COLUMBIA       SUNNY     94  73  50 SW14      29.94F HX 103
JEFFERSON CITY SUNNY     93  72  50 S12       29.93F HX 101
MEXICO         SUNNY     93  79  62 SW12      29.94F HX 110
HANNIBAL       SUNNY     93  70  46 SW8       29.93S HX  99
ROLLA          MOSUNNY   92  71  50 SW9G16    29.97F HX  98
LEBANON        MOSUNNY   95  59  30 SW15G21   29.99F HX  94
OSAGE BEACH    MOSUNNY   97  70  41 SW12      29.95F HX 103
SPRINGFIELD    SUNNY     97  65  34 SW16G22   29.99F HX  99
BRANSON        MOSUNNY   97  64  34 S10       30.04F HX  99
NEVADA         MOSUNNY   95  70  43 S15G21    29.95F HX 101
JOPLIN         MOSUNNY   96  69  41 S15       29.97F HX 102
WEST PLAINS    MOSUNNY   93  69  45 S9        30.04F HX  98

$$

IAZ060-094-KSZ022-034>040-054-083-096-NEZ052-066-093-212100-
...KANSAS...SOUTHEAST NEBRASKA AND IOWA...

CITY           SKY/WX    TMP DP  RH WIND       PRES   REMARKS
TOPEKA         SUNNY     98  69  38 S15G23    29.85F HX 104
MANHATTAN      SUNNY    101  68  34 S18G25    29.82F HX 106
EMPORIA        SUNNY     96  69  41 S18G28    29.88F HX 102
CHANUTE        MOSUNNY   96  70  42 S20G28    29.93F HX 102
WICHITA        MOSUNNY   98  66  34 S23G32    29.87F HX 101
OMAHA          MOSUNNY   89  68  49 S12       29.84R HX  93
LINCOLN        PTSUNNY   86  70  58 SW10      29.85S HX  90
FALLS CITY     MOSUNNY   99  72  41 S15G24    29.82S HX 108
LAMONI         CLOUDY    84  74  71 SE6       29.88F HX  91
DES MOINES     PTSUNNY   85  73  67 S12       29.85F HX  91

$$



USA.gov is the U.S. government's official web portal to all federal, state and local government web resources and services.